timestamp,wind_dir_avg,wind_spd_max_dir,wind_spd_avg,wind_spd_gust,battery_voltage,lat,long
2018-02-28 00:00:00+00:00,76.0,75.0,6.69,7.37,,47.59359,-54.27349
2018-02-28 00:10:00+00:00,73.0,71.0,6.63,7.65,,47.59359,-54.27349
2018-02-28 00:20:00+00:00,74.0,71.0,6.56,7.62,,47.59359,-54.27349
2018-02-28 00:30:00+00:00,70.0,67.0,6.77,7.49,,47.59359,-54.27349
2018-02-28 00:40:00+00:00,69.0,67.0,6.85,7.68,,47.59359,-54.27349
2018-02-28 00:50:00+00:00,65.0,64.0,6.53,7.16,,47.59359,-54.27349
2018-02-28 01:00:00+00:00,65.0,67.0,7.46,8.33,,47.59359,-54.27349
2018-02-28 01:10:00+00:00,67.0,69.0,6.55,7.38,,47.59359,-54.27349
2018-02-28 01:20:00+00:00,72.0,73.0,7.83,8.75,,47.59359,-54.27349
2018-02-28 01:30:00+00:00,69.0,70.0,7.53,8.26,,47.59359,-54.27349
2018-02-28 01:40:00+00:00,71.0,71.0,7.85,8.86,,47.59359,-54.27349
2018-02-28 01:50:00+00:00,68.0,70.0,7.51,8.32,,47.59359,-54.27349
2018-02-28 02:00:00+00:00,65.0,67.0,6.7,7.44,,47.59359,-54.27349
2018-02-28 02:10:00+00:00,59.0,62.0,6.66,7.21,,47.59359,-54.27349
2018-02-28 02:20:00+00:00,57.0,56.0,6.07,6.94,,47.59359,-54.27349
2018-02-28 02:30:00+00:00,56.0,56.0,6.74,7.47,,47.59359,-54.27349
2018-02-28 02:40:00+00:00,57.0,56.0,7.83,8.85,,47.59359,-54.27349
2018-02-28 02:50:00+00:00,58.0,59.0,6.67,7.49,,47.59359,-54.27349
2018-02-28 03:00:00+00:00,57.0,56.0,7.34,8.31,,47.59359,-54.27349
2018-02-28 03:10:00+00:00,63.0,63.0,6.99,7.88,,47.59359,-54.27349
2018-02-28 03:20:00+00:00,62.0,63.0,6.9,7.67,,47.59359,-54.27349
2018-02-28 03:30:00+00:00,65.0,69.0,6.21,6.92,,47.59359,-54.27349
2018-02-28 03:40:00+00:00,65.0,59.0,6.42,7.16,,47.59359,-54.27349
2018-02-28 03:50:00+00:00,69.0,68.0,6.47,7.37,,47.59359,-54.27349
2018-02-28 04:00:00+00:00,65.0,66.0,7.29,8.75,,47.59359,-54.27349
2018-02-28 04:10:00+00:00,56.0,59.0,5.98,6.44,,47.59359,-54.27349
2018-02-28 04:20:00+00:00,59.0,56.0,5.72,6.36,,47.59359,-54.27349
2018-02-28 04:30:00+00:00,59.0,64.0,6.08,6.75,,47.59359,-54.27349
2018-02-28 04:40:00+00:00,62.0,70.0,5.71,6.55,,47.59359,-54.27349
2018-02-28 04:50:00+00:00,63.0,67.0,5.8,6.54,,47.59359,-54.27349
2018-02-28 05:00:00+00:00,69.0,66.0,5.55,6.13,,47.59359,-54.27349
2018-02-28 05:10:00+00:00,67.0,70.0,6.51,8.67,,47.59359,-54.27349
2018-02-28 05:20:00+00:00,77.0,77.0,8.9,10.8,,47.59359,-54.27349
2018-02-28 05:30:00+00:00,77.0,78.0,8.28,10.19,,47.59359,-54.27349
2018-02-28 05:40:00+00:00,76.0,76.0,10.23,11.13,,47.59359,-54.27349
2018-02-28 05:50:00+00:00,79.0,78.0,9.28,11.13,,47.59359,-54.27349
2018-02-28 06:00:00+00:00,79.0,77.0,9.85,10.33,,47.59359,-54.27349
2018-02-28 06:10:00+00:00,66.0,74.0,7.57,10.41,,47.59359,-54.27349
2018-02-28 06:20:00+00:00,74.0,73.0,11.51,12.32,,47.59359,-54.27349
2018-02-28 06:30:00+00:00,69.0,70.0,8.42,10.27,,47.59359,-54.27349
2018-02-28 06:40:00+00:00,67.0,60.0,7.18,8.22,,47.59359,-54.27349
2018-02-28 06:50:00+00:00,60.0,58.0,6.57,7.66,,47.59359,-54.27349
2018-02-28 07:00:00+00:00,58.0,57.0,6.84,8.33,,47.59359,-54.27349
2018-02-28 07:10:00+00:00,55.0,56.0,8.01,8.58,,47.59359,-54.27349
2018-02-28 07:20:00+00:00,60.0,59.0,8.1,9.17,,47.59359,-54.27349
2018-02-28 07:30:00+00:00,59.0,60.0,7.79,8.95,,47.59359,-54.27349
2018-02-28 07:40:00+00:00,55.0,57.0,7.69,8.36,,47.59359,-54.27349
2018-02-28 11:50:00+00:00,65.0,58.0,7.71,8.59,,47.59359,-54.27349
2018-02-28 12:10:00+00:00,57.0,57.0,8.49,8.5,,47.59359,-54.27349
2018-02-28 12:20:00+00:00,59.0,65.0,7.4,7.69,,47.59359,-54.27349
2018-02-28 12:30:00+00:00,63.0,66.0,8.69,9.15,,47.59359,-54.27349
2018-02-28 12:40:00+00:00,62.0,60.0,7.65,8.1,,47.59359,-54.27349
2018-02-28 12:50:00+00:00,61.0,60.0,8.51,9.31,,47.59359,-54.27349
2018-02-28 13:00:00+00:00,63.0,61.0,8.18,9.17,,47.59359,-54.27349
2018-02-28 13:10:00+00:00,62.0,61.0,8.18,9.09,,47.59359,-54.27349
2018-02-28 13:20:00+00:00,66.0,58.0,7.28,8.03,,47.59359,-54.27349
2018-02-28 13:30:00+00:00,66.0,65.0,7.95,8.39,,47.59359,-54.27349
2018-02-28 13:40:00+00:00,74.0,75.0,6.4,7.27,,47.59359,-54.27349
2018-02-28 13:50:00+00:00,66.0,69.0,7.67,9.08,,47.59359,-54.27349
2018-02-28 14:00:00+00:00,62.0,60.0,7.45,8.33,,47.59359,-54.27349
2018-02-28 14:10:00+00:00,68.0,70.0,8.0,8.68,,47.59359,-54.27349
2018-02-28 14:20:00+00:00,66.0,69.0,6.87,7.57,,47.59359,-54.27349
2018-02-28 14:30:00+00:00,64.0,65.0,6.74,7.31,,47.59359,-54.27349
2018-02-28 14:40:00+00:00,64.0,67.0,6.5,7.07,,47.59359,-54.27349
2018-02-28 14:50:00+00:00,61.0,62.0,7.11,7.8,,47.59359,-54.27349
2018-02-28 15:00:00+00:00,59.0,55.0,6.73,7.63,,47.59359,-54.27349
2018-02-28 15:10:00+00:00,57.0,60.0,6.63,7.54,,47.59359,-54.27349
2018-02-28 15:20:00+00:00,61.0,59.0,7.1,7.74,,47.59359,-54.27349
2018-02-28 15:30:00+00:00,60.0,63.0,7.55,8.25,,47.59359,-54.27349
2018-02-28 15:40:00+00:00,61.0,62.0,7.08,7.77,,47.59359,-54.27349
2018-02-28 15:50:00+00:00,60.0,61.0,7.06,8.08,,47.59359,-54.27349
2018-02-28 16:00:00+00:00,64.0,67.0,7.12,7.87,,47.59359,-54.27349
2018-02-28 16:10:00+00:00,58.0,59.0,6.68,7.95,,47.59359,-54.27349
2018-02-28 16:20:00+00:00,65.0,65.0,6.87,7.82,,47.59359,-54.27349
2018-02-28 16:30:00+00:00,63.0,65.0,7.2,8.14,,47.59359,-54.27349
2018-02-28 16:40:00+00:00,60.0,61.0,6.79,7.4,,47.59359,-54.27349
2018-02-28 16:50:00+00:00,63.0,63.0,6.39,7.39,,47.59359,-54.27349
2018-02-28 17:00:00+00:00,63.0,65.0,6.69,7.83,,47.59359,-54.27349
2018-02-28 17:10:00+00:00,61.0,64.0,6.16,7.07,,47.59359,-54.27349
2018-02-28 17:20:00+00:00,59.0,62.0,6.72,7.5,,47.59359,-54.27349
2018-02-28 17:30:00+00:00,56.0,46.0,6.82,8.06,,47.59359,-54.27349
2018-02-28 17:40:00+00:00,61.0,56.0,6.11,7.37,,47.59359,-54.27349
2018-02-28 17:50:00+00:00,59.0,56.0,6.74,8.0,,47.59359,-54.27349
2018-02-28 18:00:00+00:00,58.0,54.0,5.48,6.1,,47.59359,-54.27349
2018-02-28 18:10:00+00:00,61.0,61.0,6.17,7.23,,47.59359,-54.27349
2018-02-28 18:20:00+00:00,62.0,64.0,6.4,7.1,,47.59359,-54.27349
2018-02-28 18:30:00+00:00,62.0,61.0,6.43,7.33,,47.59359,-54.27349
2018-02-28 18:40:00+00:00,60.0,62.0,5.85,6.45,,47.59359,-54.27349
2018-02-28 18:50:00+00:00,55.0,55.0,5.48,6.26,,47.59359,-54.27349
2018-02-28 19:00:00+00:00,59.0,60.0,5.84,6.59,,47.59359,-54.27349
2018-02-28 19:10:00+00:00,63.0,60.0,5.96,6.7,,47.59359,-54.27349
2018-02-28 19:20:00+00:00,59.0,63.0,6.01,6.72,,47.59359,-54.27349
2018-02-28 19:30:00+00:00,59.0,57.0,5.51,6.14,,47.59359,-54.27349
2018-02-28 19:40:00+00:00,57.0,57.0,5.25,5.96,,47.59359,-54.27349
2018-02-28 19:50:00+00:00,57.0,54.0,6.39,7.0,,47.59359,-54.27349
2018-02-28 20:00:00+00:00,59.0,58.0,5.74,6.34,,47.59359,-54.27349
2018-02-28 20:10:00+00:00,64.0,64.0,5.32,5.99,,47.59359,-54.27349
2018-02-28 20:20:00+00:00,60.0,63.0,4.89,5.64,,47.59359,-54.27349
2018-02-28 20:30:00+00:00,56.0,55.0,4.52,4.99,,47.59359,-54.27349
2018-02-28 20:40:00+00:00,57.0,55.0,5.76,6.36,,47.59359,-54.27349
2018-02-28 20:50:00+00:00,55.0,54.0,6.29,7.16,,47.59359,-54.27349
2018-02-28 21:00:00+00:00,53.0,59.0,6.53,7.33,,47.59359,-54.27349
2018-02-28 21:10:00+00:00,54.0,55.0,7.21,8.0,,47.59359,-54.27349
2018-02-28 21:20:00+00:00,58.0,57.0,7.21,7.89,,47.59359,-54.27349
2018-02-28 21:30:00+00:00,57.0,57.0,6.78,7.82,,47.59359,-54.27349
2018-02-28 21:40:00+00:00,61.0,62.0,7.1,8.23,,47.59359,-54.27349
2018-02-28 21:50:00+00:00,61.0,65.0,7.66,8.55,,47.59359,-54.27349
2018-02-28 22:00:00+00:00,62.0,62.0,7.24,8.27,,47.59359,-54.27349
2018-02-28 22:10:00+00:00,63.0,66.0,6.31,6.95,,47.59359,-54.27349
2018-02-28 22:20:00+00:00,62.0,63.0,6.78,7.41,,47.59359,-54.27349
2018-02-28 22:30:00+00:00,62.0,59.0,5.15,6.13,,47.59359,-54.27349
2018-02-28 22:40:00+00:00,58.0,56.0,5.15,5.6,,47.59359,-54.27349
2018-02-28 22:50:00+00:00,48.0,53.0,4.3,4.73,,47.59359,-54.27349
2018-02-28 23:00:00+00:00,50.0,49.0,5.12,5.56,,47.59359,-54.27349
2018-02-28 23:10:00+00:00,50.0,52.0,5.69,6.24,,47.59359,-54.27349
2018-02-28 23:20:00+00:00,48.0,46.0,5.62,6.38,,47.59359,-54.27349
2018-02-28 23:30:00+00:00,53.0,53.0,6.35,6.81,,47.59359,-54.27349
2018-02-28 23:40:00+00:00,55.0,64.0,5.51,6.4,,47.59359,-54.27349
2018-02-28 23:50:00+00:00,49.0,53.0,4.75,5.42,,47.59359,-54.27349
